GEFSGL_500_meanwind_324.txt.gz
Wind_Speed
11 11 11 11 12 12 12 12 12 12 12 13 14 14 14 14 14 13 12 13 13 13 13 14 13 14 13 14 14 15 16 16 16 16 17 18 18 18 18 19 19 20 19
12 12 12 12 13 14 14 13 13 14 14 14 15 15 15 15 14 14 14 14 14 14 14 14 14 15 15 15 15 15 16 16 17 18 18 20 20 19 19 19 20 20 19
14 14 13 14 14 14 14 15 15 16 15 15 15 16 16 15 15 16 16 16 16 16 16 15 15 16 16 16 16 16 16 17 18 19 20 20 21 21 21 21 21 21 21
16 16 15 16 16 16 16 16 17 17 17 17 17 17 17 17 16 17 17 17 18 18 18 17 17 17 17 18 18 18 18 19 20 20 21 21 22 22 23 22 22 21 21
18 19 18 18 19 19 18 18 18 19 19 19 19 19 18 18 18 19 19 19 19 20 20 20 19 19 19 19 20 20 21 21 21 21 22 22 22 23 23 23 22 22 22
18 19 19 19 20 19 19 19 19 20 20 20 20 20 19 20 20 20 21 21 21 21 21 22 21 21 21 21 22 22 22 22 22 23 23 23 24 24 24 24 24 24 24
20 20 20 20 19 19 19 20 21 21 22 22 22 21 21 21 22 22 22 23 23 22 23 22 22 24 24 24 24 24 24 25 25 25 25 25 25 25 25 25 26 26 25
21 21 22 22 22 21 21 22 23 23 23 24 24 23 23 23 23 23 24 24 25 25 25 24 25 25 26 26 26 26 27 27 27 27 27 27 27 27 27 27 27 27 27
23 23 23 23 23 23 23 23 24 24 24 25 25 25 24 24 24 25 25 26 26 26 26 26 26 27 28 29 29 28 28 29 28 28 27 28 28 29 28 28 28 27 28
24 24 24 24 24 24 24 24 25 25 25 25 25 25 26 25 25 26 26 26 27 27 27 27 28 29 29 29 29 29 29 30 29 29 29 29 30 30 30 30 30 29 29
25 25 25 25 24 24 25 25 25 26 26 26 26 27 27 28 28 27 27 28 29 29 29 30 30 30 29 29 29 29 29 30 30 30 30 31 31 31 31 30 30 30 30
27 26 27 27 27 26 26 26 27 27 27 27 28 28 29 30 30 30 30 29 30 30 30 30 30 30 30 30 31 31 31 31 31 31 31 31 32 32 32 32 32 32 32
28 28 28 28 28 28 28 28 28 29 29 29 29 29 30 30 30 31 30 31 31 30 31 31 32 32 32 33 32 33 33 33 33 33 33 33 33 34 34 33 33 33 33
31 30 30 29 29 29 30 30 30 30 30 30 30 30 30 30 30 31 31 31 31 31 32 33 33 34 34 34 34 33 33 33 34 34 34 34 34 34 35 35 34 34 34
31 31 31 30 30 30 30 30 30 30 30 30 30 30 30 30 30 31 31 31 32 32 33 33 33 34 34 33 33 33 33 33 33 33 33 33 34 34 34 34 34 34 33
31 31 31 31 31 30 30 30 30 29 29 29 30 30 30 30 30 31 32 32 33 33 33 33 33 33 33 34 34 34 34 33 34 34 34 34 35 35 35 35 34 34 34
31 31 31 31 30 30 30 30 30 30 29 30 30 30 30 30 30 31 32 32 33 33 33 34 34 34 35 35 34 35 34 34 34 35 35 35 35 35 35 35 35 35 35
30 30 30 30 30 30 31 31 31 31 30 30 30 30 30 30 31 32 32 33 33 34 34 35 35 35 35 35 35 35 35 35 35 35 35 35 35 35 34 34 34 34 34
30 30 30 30 31 31 31 31 31 31 30 31 31 31 31 32 32 33 33 33 34 34 35 35 35 36 36 36 36 36 36 36 35 35 34 35 35 35 35 34 34 34 33
29 30 29 30 31 31 31 31 31 30 30 30 31 32 33 33 33 33 33 34 34 35 35 35 36 36 36 36 36 37 37 37 37 36 36 35 35 35 34 33 33 33 32
29 29 29 29 30 30 31 31 31 30 30 30 31 32 32 32 33 34 34 35 36 36 36 36 37 36 36 36 37 37 37 37 37 37 36 36 35 35 34 34 34 34 33
29 29 29 29 29 29 30 31 31 31 30 31 31 32 33 33 33 34 35 36 37 38 38 38 38 38 37 37 38 38 37 36 36 36 36 35 34 34 35 35 34 34 34
29 30 30 30 30 31 31 31 31 31 31 32 33 33 34 34 35 36 36 37 37 37 38 39 39 39 38 38 38 38 37 36 36 36 35 34 34 35 34 34 34 34 34
31 32 32 32 31 32 31 30 31 31 32 33 33 34 34 35 35 36 36 36 36 36 37 38 38 37 37 37 37 37 37 36 35 34 34 34 34 33 33 33 32 32 33
31 32 32 32 31 31 31 32 32 32 33 33 33 34 34 34 34 34 35 35 34 34 35 35 36 35 35 35 36 36 35 34 34 33 33 33 33 33 32 32 32 33 33
30 30 31 31 31 31 31 31 32 32 32 33 33 33 33 34 34 34 34 34 34 34 34 35 35 35 35 34 35 35 34 34 33 33 33 32 32 32 31 31 32 32 32

GEFSGL_500_meanwind_330.txt.gz
Wind_Speed
13 13 13 14 14 13 13 13 13 12 12 12 13 13 13 13 14 14 14 14 14 15 15 16 15 15 15 15 15 15 15 16 17 17 17 18 17 18 18 18 18 19 18
15 15 15 15 14 14 14 14 14 14 14 14 14 14 14 15 15 15 15 16 16 16 16 17 17 17 17 17 17 17 17 18 18 19 18 18 18 19 20 19 20 19 20
16 16 17 17 16 16 17 17 17 16 16 16 15 15 16 16 17 17 17 17 17 17 17 18 18 18 18 18 19 19 19 19 19 19 19 20 20 21 22 22 21 21 22
18 18 18 18 18 18 18 18 18 18 17 18 17 16 17 18 19 19 19 19 19 19 19 19 19 19 20 20 20 20 20 20 20 21 21 22 22 23 23 23 23 24 24
20 19 19 19 19 18 18 19 19 19 19 19 19 19 19 20 20 21 21 21 20 20 20 20 20 21 22 22 22 22 22 22 23 23 23 23 24 25 25 25 25 25 25
21 20 20 19 19 20 20 20 20 21 21 21 21 21 22 22 22 22 22 21 21 21 21 21 22 22 23 23 24 24 25 25 25 25 25 25 26 26 26 26 26 26 25
22 21 21 20 21 21 22 22 22 22 22 23 23 23 23 23 23 23 23 23 23 23 23 23 24 24 24 25 26 26 26 27 27 27 26 27 28 28 28 27 27 26 26
22 22 22 22 23 22 22 23 23 24 24 25 25 25 25 25 25 25 24 24 24 25 25 26 26 25 25 26 27 27 27 27 28 27 28 28 28 28 29 29 28 27 27
23 23 24 24 25 24 24 24 25 25 26 27 26 26 26 26 26 25 25 25 26 26 27 27 27 27 27 27 28 28 29 29 29 29 29 29 29 30 31 30 29 28 28
25 25 25 26 25 25 25 26 26 26 27 27 27 27 27 27 27 26 26 26 27 27 28 28 28 28 28 29 29 29 29 29 30 30 30 30 31 31 31 30 30 30 30
27 26 27 27 26 26 27 27 27 27 27 28 28 28 28 27 27 27 28 28 29 29 29 30 30 29 30 30 30 30 30 30 30 31 31 32 32 32 32 32 31 31 31
28 28 28 28 27 28 28 28 29 29 29 29 29 29 29 29 29 29 29 30 31 31 30 30 30 30 30 30 30 30 31 32 32 32 33 33 32 32 32 32 32 32 32
29 29 29 28 28 29 29 29 30 30 30 31 31 30 30 31 31 31 31 32 31 31 30 30 31 31 31 31 32 32 33 34 34 34 34 34 32 32 32 32 32 32 32
29 29 29 29 29 30 30 30 30 30 30 31 31 31 31 31 31 31 31 32 32 31 32 32 32 32 32 33 33 33 34 35 35 35 35 33 33 33 32 32 32 33 33
30 29 29 29 29 29 29 30 30 30 30 31 32 32 32 32 32 33 32 32 32 32 32 33 33 33 33 33 34 34 35 36 35 35 34 34 34 33 33 32 32 32 32
31 30 29 29 30 30 30 29 29 30 31 31 32 33 33 33 32 32 32 33 33 33 33 33 34 33 33 33 34 34 34 35 36 36 35 35 34 34 33 33 33 33 33
32 31 30 30 30 30 30 30 30 31 31 31 32 33 33 33 32 32 32 32 32 33 33 33 33 33 33 34 34 34 35 36 36 35 35 34 34 34 34 33 33 33 33
31 31 31 31 31 31 31 31 31 32 32 32 33 33 33 32 32 33 33 32 32 33 33 33 33 33 34 34 34 35 36 36 35 35 35 35 34 34 34 34 33 33 33
32 32 32 32 32 32 33 33 32 32 33 33 33 33 33 33 33 33 33 32 32 33 33 34 34 35 35 35 35 35 36 36 36 36 35 35 34 34 33 33 33 33 33
33 32 32 31 31 32 32 33 33 33 34 34 33 33 33 33 33 33 33 33 33 33 33 34 34 34 34 35 35 36 36 36 35 35 34 34 34 33 33 33 33 33 33
32 32 32 32 32 32 33 33 33 34 34 33 32 32 33 33 33 33 33 33 33 33 33 34 33 33 34 35 35 35 35 36 35 35 34 34 33 33 33 32 32 32 32
33 33 32 32 32 31 31 32 32 33 33 32 32 32 32 33 33 33 33 34 34 34 34 34 35 35 34 34 34 34 34 35 35 35 34 33 33 33 32 32 32 32 32
34 34 34 34 33 32 31 31 32 32 32 32 32 33 33 33 33 34 34 34 33 33 34 34 34 34 34 34 34 34 34 34 35 35 34 34 34 33 33 33 32 32 31
33 32 33 33 32 31 30 30 31 30 31 32 33 33 33 34 34 34 34 33 33 33 33 34 33 33 33 34 33 34 34 34 35 34 34 34 33 33 33 33 32 32 31
32 31 31 30 30 30 29 30 30 31 32 33 33 33 32 32 33 33 33 32 33 33 33 32 32 33 33 33 33 33 33 33 33 33 33 33 32 32 32 32 32 32 32
31 30 30 30 30 29 30 30 30 31 31 31 32 32 32 32 33 33 33 32 32 32 32 32 32 33 33 33 32 32 32 31 32 32 32 31 31 31 32 31 31 31 31

GEFSGL_500_meanwind_336.txt.gz
Wind_Speed
16 16 16 17 18 18 18 17 17 17 17 17 17 17 16 17 17 17 17 17 17 18 17 17 17 17 18 18 19 19 19 18 17 17 17 17 18 18 18 18 18 18 18
17 17 17 18 18 19 19 18 18 17 17 18 18 17 17 18 18 19 19 19 19 19 19 18 18 19 19 19 19 20 20 20 19 18 18 18 18 19 19 19 19 19 19
18 18 19 19 19 19 19 19 18 18 18 18 19 19 19 20 20 20 20 20 20 20 21 21 20 20 20 20 20 20 21 21 21 21 21 21 21 21 21 21 21 22 22
20 20 20 20 21 20 20 20 19 19 19 19 20 21 21 21 22 22 22 22 21 21 21 21 21 21 21 21 21 22 22 22 22 22 23 23 23 24 23 23 22 23 23
21 21 21 22 22 22 21 21 21 20 20 20 20 21 21 22 22 23 23 22 22 22 22 22 21 21 22 22 23 23 24 24 24 24 24 25 25 26 25 25 24 24 24
23 23 23 23 22 22 22 21 21 20 21 22 22 23 23 23 23 23 23 22 22 22 22 23 23 23 23 24 25 25 26 26 25 26 26 26 26 26 26 26 25 25 25
24 24 25 24 24 24 24 24 23 23 23 23 23 23 23 23 24 24 24 23 23 23 23 24 24 25 25 26 26 26 27 27 27 28 27 27 28 27 27 27 27 26 26
25 26 25 25 25 25 26 25 24 24 24 24 24 23 24 24 24 24 24 24 25 25 25 25 25 25 26 27 27 27 28 28 28 28 28 28 29 29 29 29 29 28 28
27 27 26 26 25 25 26 25 25 25 24 24 25 25 25 24 25 25 25 26 26 26 26 26 26 27 27 28 28 28 28 29 29 29 29 29 30 30 30 30 30 30 29
27 26 27 26 26 26 26 26 26 27 27 26 26 26 26 25 25 26 26 26 27 27 27 27 27 28 28 29 29 29 29 30 30 30 30 30 31 31 31 31 31 30 30
27 26 27 28 27 27 27 28 28 27 27 27 27 27 27 27 27 27 27 27 27 27 28 28 29 29 30 30 30 30 31 31 30 30 30 30 31 31 32 32 32 32 32
29 27 28 28 28 28 28 28 29 28 28 27 27 27 28 28 29 29 29 28 29 29 29 30 30 30 31 31 32 32 32 32 32 32 31 32 32 33 33 34 33 33 32
30 29 28 28 29 29 29 29 29 29 29 29 29 29 30 30 30 30 29 30 30 30 30 31 31 32 32 33 33 34 34 34 33 33 33 34 34 34 34 33 34 34 34
30 30 29 29 29 29 29 29 29 29 30 30 30 30 31 30 30 30 30 31 32 31 32 32 32 33 33 34 34 34 34 34 34 34 34 34 35 35 34 34 34 34 34
30 30 30 30 30 30 29 29 30 30 30 30 31 31 31 31 31 31 31 32 33 33 33 33 33 34 34 34 35 35 35 34 34 35 35 35 35 35 35 35 34 34 34
31 31 31 30 30 30 30 31 30 31 31 31 31 32 32 32 33 33 33 34 34 34 34 34 34 35 36 35 35 35 35 35 35 35 35 35 35 35 35 34 33 33 33
31 32 32 31 30 31 31 32 32 31 32 32 33 33 33 33 33 34 34 34 35 35 34 34 35 35 35 35 35 35 35 35 35 36 36 35 35 34 34 34 33 33 33
32 32 32 32 32 32 33 34 33 32 33 33 34 34 34 34 35 35 35 35 35 35 35 35 35 35 35 35 35 35 35 35 36 36 35 34 34 35 35 34 33 33 33
32 32 33 33 34 34 35 34 34 34 35 34 35 35 35 35 36 36 36 36 35 35 35 36 36 35 35 35 35 35 35 35 35 34 34 34 34 34 34 34 34 34 33
32 32 33 34 35 35 35 35 35 35 36 36 36 36 35 35 36 36 36 36 36 36 36 36 36 36 35 35 35 35 34 35 35 34 34 34 34 34 34 33 34 33 32
32 32 33 34 35 35 35 35 35 35 36 36 37 37 36 37 37 36 36 36 36 36 36 35 36 35 35 35 34 34 35 35 34 34 34 34 34 34 34 33 33 33 32
33 34 35 35 35 36 36 36 36 36 37 37 36 36 37 37 37 37 37 36 36 36 35 35 34 35 34 34 35 35 35 35 34 34 34 34 34 34 34 33 33 32 32
32 33 34 34 35 34 35 35 35 36 36 37 37 36 36 37 37 37 36 36 36 36 35 35 35 34 34 35 35 35 36 35 35 34 34 35 34 34 34 34 33 32 32
33 33 33 34 34 35 35 35 35 35 35 35 35 35 36 36 36 36 35 35 35 35 35 35 34 34 34 34 34 35 35 35 34 34 34 34 34 34 34 34 32 31 31
32 32 32 33 33 33 34 34 35 35 35 35 35 36 36 37 36 36 35 34 34 34 34 34 34 33 33 33 34 35 35 35 34 34 34 34 34 34 34 33 32 31 31
29 30 30 31 31 32 32 33 33 33 34 34 34 35 35 35 35 35 34 34 34 34 34 34 33 33 33 33 33 33 33 33 33 34 33 33 33 33 32 32 32 31 31

GEFSGL_500_meanwind_342.txt.gz
Wind_Speed
13 14 14 14 15 15 16 16 15 14 14 14 14 14 15 15 15 14 14 14 14 14 14 14 14 14 14 14 14 15 16 16 15 14 15 14 14 15 15 16 17 17 17
15 15 16 16 16 16 16 16 15 15 15 14 14 15 16 16 16 15 15 15 15 16 16 15 16 16 16 16 16 16 17 17 16 17 17 16 16 17 17 18 19 19 19
16 16 16 16 17 16 16 16 16 16 15 15 16 16 17 18 18 17 16 16 16 17 17 17 17 17 17 17 17 18 18 18 19 19 18 18 19 19 19 20 20 21 22
17 16 17 18 17 17 17 16 16 16 16 17 18 18 18 18 18 17 17 17 18 18 18 18 18 19 18 18 18 19 20 20 21 21 21 21 21 21 21 21 21 22 22
18 17 18 18 18 18 17 17 17 18 17 17 18 18 18 18 18 18 18 18 18 18 19 19 20 20 19 19 20 20 21 21 22 22 22 23 23 23 23 23 23 23 23
19 19 19 19 19 20 19 19 19 18 19 19 19 20 20 20 20 19 19 19 20 20 20 20 21 20 21 21 22 22 23 23 24 25 25 25 25 25 25 25 24 24 24
20 20 20 20 21 21 21 21 21 21 20 20 21 21 22 22 21 21 20 20 21 21 22 22 22 22 22 23 24 24 25 26 26 26 27 27 26 26 26 26 26 26 26
21 22 22 22 21 22 22 22 23 22 22 22 22 22 22 22 23 23 22 22 22 22 23 23 22 23 24 24 25 26 26 26 27 27 27 27 27 27 27 27 27 27 27
22 23 24 23 23 23 23 23 23 23 23 23 23 23 24 23 24 24 24 23 24 24 24 24 24 24 25 25 26 26 26 27 27 27 27 27 27 27 27 27 27 27 27
24 24 25 26 25 25 24 24 24 24 23 24 24 24 25 25 25 25 25 25 25 25 25 26 26 25 26 26 26 27 27 27 27 27 27 28 28 27 28 28 28 28 29
26 26 26 26 26 25 25 25 25 25 24 24 25 25 25 25 25 26 26 26 27 27 27 26 26 27 27 27 27 28 27 28 27 27 28 28 28 29 29 30 30 30 30
28 28 27 26 26 26 25 25 25 25 25 25 26 26 25 25 25 26 26 27 28 28 28 28 28 27 27 27 28 28 28 28 28 29 29 29 30 30 31 31 31 31 31
28 28 27 27 27 27 27 27 26 26 26 26 26 26 26 26 26 27 27 27 28 28 28 28 28 28 28 28 28 29 29 29 29 29 30 30 31 31 31 31 31 31 31
29 29 29 29 28 28 28 27 27 27 27 27 27 27 27 27 27 28 28 28 28 28 28 29 29 29 29 29 29 29 30 30 31 30 31 31 31 31 31 31 31 31 31
31 30 29 29 29 29 29 29 28 27 27 27 26 27 26 26 27 28 29 29 30 30 30 31 31 31 30 30 31 30 31 31 31 31 31 31 31 31 31 31 31 31 32
30 30 30 30 29 29 28 28 28 28 28 28 28 28 27 27 28 29 29 30 31 31 32 32 32 31 31 31 30 31 31 31 31 31 31 31 32 32 32 32 32 33 33
31 31 31 31 31 30 30 30 30 30 29 29 29 29 29 29 29 30 30 31 31 31 32 32 33 32 31 31 31 31 31 31 32 32 32 32 32 32 32 32 32 33 32
31 31 31 31 31 30 30 30 29 29 29 30 30 29 29 29 30 30 31 31 32 33 33 33 33 33 32 32 32 32 32 32 32 33 32 32 32 32 32 32 32 32 32
31 30 30 30 31 30 31 30 30 30 30 31 31 31 30 31 32 32 32 33 34 34 34 33 33 32 32 32 32 32 33 32 32 33 33 32 32 32 33 33 32 32 32
31 30 30 30 30 30 31 31 31 31 31 32 32 31 32 32 32 32 33 33 33 33 33 33 32 32 33 33 33 32 32 33 33 33 33 33 33 33 33 33 32 32 32
31 31 31 32 32 32 32 32 32 32 32 32 31 31 31 32 32 32 33 33 33 33 33 33 34 34 33 34 33 33 33 32 32 32 33 33 34 33 33 33 33 32 32
32 32 32 32 32 33 33 33 32 32 32 32 31 31 31 31 31 31 32 33 33 33 33 33 33 32 33 33 33 33 33 32 32 32 33 33 34 33 33 32 32 32 32
32 32 33 33 33 33 33 33 33 33 32 32 31 31 31 31 31 31 32 33 34 34 33 32 32 32 33 33 33 32 32 32 33 33 33 33 33 33 32 31 31 31 31
31 32 32 33 33 33 33 33 33 32 32 32 32 32 32 31 32 32 32 33 33 32 32 32 31 32 32 33 33 32 32 32 32 33 33 33 33 32 32 31 31 31 31
29 30 30 31 31 31 32 32 32 31 31 32 32 31 31 31 32 33 32 32 32 31 31 31 32 32 33 33 32 32 32 32 32 33 33 33 32 32 31 31 31 31 31
28 29 29 29 29 30 30 31 31 30 30 31 31 31 31 32 32 32 32 32 31 31 31 31 31 32 32 32 32 31 31 31 31 32 31 31 31 31 31 31 31 31 30

GEFSGL_500_meanwind_348.txt.gz
Wind_Speed
16 16 17 17 16 16 16 16 16 16 16 16 16 16 17 16 16 15 15 15 15 15 15 15 16 16 16 16 16 16 16 16 16 16 16 16 16 17 17 17 18 18 18
19 19 19 18 17 17 18 18 18 18 18 18 17 18 17 17 16 16 16 16 17 16 16 16 17 17 17 17 17 17 17 18 18 18 18 18 17 18 19 19 20 20 20
20 21 20 20 19 18 18 18 18 19 19 18 19 19 18 17 16 16 17 17 17 17 18 18 18 18 19 19 19 19 20 20 20 20 20 20 20 20 20 21 21 22 22
21 21 20 19 19 19 20 20 19 19 19 19 19 19 19 18 17 17 18 18 18 18 19 19 20 20 20 21 21 21 21 21 21 21 21 21 22 22 22 23 23 23 23
21 21 21 21 21 21 21 21 21 20 20 20 20 20 20 19 19 19 20 19 20 20 20 21 21 21 22 22 22 22 22 22 22 22 22 23 23 24 24 24 24 24 24
22 22 22 22 22 22 22 22 21 21 21 22 21 21 21 21 21 22 22 22 21 21 21 22 22 22 22 23 23 24 23 23 23 23 24 24 24 25 25 25 26 26 26
23 24 24 24 23 23 23 23 22 23 23 23 23 23 22 22 23 23 22 22 22 22 22 23 23 23 23 23 24 24 24 24 25 25 25 25 25 26 27 28 27 27 27
25 25 25 25 25 24 24 24 24 24 24 24 24 24 24 24 23 24 24 24 23 23 24 24 24 24 24 25 25 25 25 26 26 26 26 27 28 29 29 29 29 29 29
27 26 26 26 26 26 25 25 25 25 25 25 25 24 24 23 24 24 25 25 25 25 25 26 26 26 26 26 26 25 26 27 27 28 28 28 28 29 29 29 29 30 29
28 28 28 28 28 27 26 26 25 25 25 25 25 25 24 24 24 25 25 25 25 26 27 28 28 27 27 27 27 27 27 28 28 28 29 29 29 30 30 30 30 30 30
29 29 29 30 29 28 27 27 26 26 26 26 26 26 25 25 26 26 26 26 26 27 27 27 27 28 28 28 28 28 29 29 29 29 29 29 30 30 31 31 31 31 31
31 31 31 30 30 29 28 28 28 27 27 27 27 27 27 27 27 27 28 28 28 28 28 28 28 29 29 29 29 30 30 30 30 31 31 31 31 31 31 31 32 32 31
32 32 32 32 31 30 29 29 29 29 28 28 28 28 28 28 28 28 29 29 29 29 29 29 29 30 29 30 30 30 31 31 31 31 31 31 32 32 32 32 33 33 32
32 32 33 33 32 31 30 30 30 31 30 30 30 29 29 29 29 30 30 30 30 30 30 30 30 30 30 30 31 30 30 31 31 32 32 33 33 33 34 34 33 33 32
33 33 33 33 32 32 32 32 31 31 32 32 31 31 30 30 30 31 31 31 31 31 31 31 31 31 31 31 31 31 31 32 33 34 34 34 34 34 34 34 33 33 32
33 33 33 32 32 32 33 33 32 32 33 33 33 32 31 31 31 31 31 31 32 32 32 31 32 32 32 32 32 32 33 33 34 34 34 33 33 34 33 33 32 32 32
33 33 33 33 33 33 33 33 32 32 33 34 34 34 33 32 32 32 32 32 33 32 32 32 32 33 33 33 33 33 33 33 34 34 34 34 34 33 34 34 33 32 32
34 33 33 33 34 34 33 33 34 33 33 33 34 33 33 33 33 33 33 33 33 32 33 33 33 33 33 33 33 33 33 33 34 34 33 33 33 33 33 33 33 32 32
32 32 32 33 33 33 33 34 34 35 35 34 34 33 34 34 34 34 33 33 33 33 33 32 32 32 32 33 33 33 33 33 33 33 33 33 33 32 32 32 32 32 31
31 31 31 32 32 32 33 34 34 35 35 35 34 34 34 34 34 34 34 33 33 33 33 32 32 32 32 33 33 33 33 32 32 32 32 32 32 32 31 31 31 31 31
30 30 30 31 32 32 32 32 33 33 34 34 34 34 34 33 33 33 33 33 33 32 32 32 31 31 32 32 32 32 32 32 32 32 32 32 32 32 32 31 32 32 32
29 30 30 30 30 31 32 33 34 33 33 33 33 33 34 34 33 32 33 32 33 33 32 32 32 32 31 31 32 32 33 33 33 33 32 32 32 32 32 32 32 32 32
29 30 30 30 31 31 31 32 32 32 32 32 33 33 33 33 32 32 33 33 32 32 31 31 31 31 32 32 32 32 32 33 32 32 32 32 32 32 32 32 32 32 32
30 30 30 30 30 30 30 31 31 31 31 31 32 32 33 32 32 32 32 32 32 32 31 31 31 31 31 31 31 32 32 32 32 32 31 31 31 31 31 31 32 32 32
29 29 30 30 30 29 29 29 30 30 31 31 31 32 32 31 31 31 31 31 31 31 31 31 31 31 31 31 31 31 32 32 31 31 31 30 30 31 31 31 32 32 32
28 28 28 28 29 29 29 29 29 29 29 29 30 30 31 31 31 30 30 30 30 31 30 30 30 30 30 30 30 30 30 30 31 30 30 31 31 31 32 32 32 32 31